Location: La Tine
(46.4708°N, 7.0525°E)
Time: 08:45:02
(UTC+00:00)

Meteor 1-24 Rocket - Pass Details

Date: 17 January 2021
Orbit: 790 x 927 km, 81.3° (Epoch: 24 February)

Event Time Altitude Azimuth Distance (km) Brightness Sun altitude
Rises 18:08:45 0° 203° (SSW) 3,335 7.3 -19.3°
Reaches altitude 10° 18:11:12 10° 208° (SSW) 2,391 6.5 -19.7°
Maximum altitude 18:16:27 53° 285° (WNW) 976 4.3 -20.6°
Drops below altitude 10° 18:21:40 10° 2° (N) 2,368 5.9 -21.5°
Sets 18:24:06 0° 8° (N) 3,300 6.6 -21.9°
